Flag for U.S.A. Weather past 2 weeks in Helena, Montana, U.S.A.

Now
57 °F

Sunny.


Feels Like: 57 °F
Forecast: 29 / 47 °F
Wind: 3 mph from Northwest

Location: Helena Regional Airport

Current Time: Jan 25, 2015 at 5:41:07 PM

Latest Report: Jan 25, 2015 at 4:53 PM


Visibility: 10 mi

Pressure: 30.19 "Hg

Humidity: 39%

Dew point: 32 °F

Location of HelenaLocation

Historic Weather in Helena — Graph

°F

Helena temperature yesterday

Maximum temperature yesterday: 49 °F (at 3:53 PM)
Minimum temperature yesterday: 35 °F (at 12:53 AM)
Average temperature yesterday: 46 °F

Past Weeks' High & Low Weather Summary

 TemperatureHumidityPressure
High63 °F (Jan 25, 3:04 PM)96% (Jan 13, 11:53 AM)30.63 "Hg (Jan 13, 11:53 AM)
Low2 °F (Jan 14, 4:53 AM)29% (Jan 25, 3:04 PM)29.94 "Hg (Jan 18, 10:53 AM)
Average28 °F71%30.32 "Hg
* Reported Jan 10 3:53 PM — Jan 25 3:53 PM, Helena, Weather by CustomWeather, © 2014

Note: Actual official high and low records may vary slightly from our data, if they occured in-between our weather recording intervals... More about our weather records

Advertising

Helena weather history for previous 24 hours

 ConditionsComfort  
Time TempWeatherWind HumidityBarometerVisibility
3:53 PM
Jan 25
60 °FSunny.10 mph35%30.17 "Hg10 mi
3:04 PM63 °FSunny.10 mph29%30.14 "Hg10 mi
1:53 PM53 °FSunny.No wind48%30.18 "Hg10 mi
12:53 PM58 °FSunny.No wind43%30.18 "Hg10 mi
11:53 AM49 °FSunny.7 mph61%30.21 "Hg10 mi
10:53 AM47 °FSunny.No wind64%30.23 "Hg10 mi
9:53 AM49 °FSunny.No wind61%30.21 "Hg10 mi
8:53 AM52 °FPassing clouds.12 mph55%30.18 "Hg10 mi
7:53 AM52 °FPassing clouds.17 mph57%30.16 "Hg10 mi
6:53 AM54 °FPassing clouds.16 mph51%30.16 "Hg10 mi
5:53 AM42 °FPassing clouds.3 mph76%30.19 "Hg10 mi
4:53 AM46 °FOvercast.No wind71%30.19 "Hg10 mi
3:53 AM51 °FOvercast.9 mph61%30.18 "Hg10 mi
2:53 AM48 °FMostly cloudy.5 mph68%30.21 "Hg10 mi
1:53 AM49 °FClear.18 mph66%30.20 "Hg10 mi
12:53 AM48 °FPartly cloudy.16 mph68%30.22 "Hg10 mi
11:53 PM
Jan 24
48 °FPassing clouds.12 mph68%30.24 "Hg10 mi
10:53 PM46 °FPassing clouds.9 mph71%30.25 "Hg10 mi
9:53 PM46 °FMostly cloudy.10 mph71%30.27 "Hg10 mi
8:53 PM47 °FOvercast.7 mph69%30.28 "Hg10 mi
7:53 PM47 °FOvercast.15 mph66%30.27 "Hg10 mi
6:53 PM46 °FMostly cloudy.12 mph66%30.29 "Hg10 mi
5:53 PM47 °FPassing clouds.12 mph64%30.27 "Hg10 mi
Weather by CustomWeather, © 2014

See weather overviewHow to use our weather pages